ETD403 VTBS-OMAA

Flight info

Callsign ETD403
Flight time N/A
Altitude 34000
Route N0450F340 DCT PASTO L301 DWI M506 KAMKO L524 NNP G472 AAE L639 RASKI N881 KIPOL L444 TOLDA M628 TULBU N563 NOBTO DCT
Aircraft B77W/H-SDE3FGIRWY/LB1D1

Departure

Time N/A
Airport Suvarnabhumi Airport (VTBS)

Arrival

Time 2026-05-06 09:19
Airport Zayed International Airport (OMAA)
Time Latitude Longitude Altitude Speed Heading
2026-05-06 08:39 22.69545 58.50053 33906 ft 480 kts 285°
2026-05-06 08:39 22.70641 58.46015 33910 ft 480 kts 285°
2026-05-06 08:40 22.72531 58.39063 33895 ft 480 kts 285°
2026-05-06 08:40 22.74253 58.32566 33911 ft 480 kts 285°
2026-05-06 08:41 22.74954 58.29888 33915 ft 480 kts 285°
2026-05-06 08:42 22.76764 58.22932 33918 ft 479 kts 285°
2026-05-06 08:42 22.78557 58.16028 33915 ft 479 kts 284°
2026-05-06 08:43 22.80360 58.09079 33919 ft 479 kts 284°
2026-05-06 08:43 22.82159 58.02136 33911 ft 479 kts 284°
2026-05-06 08:44 22.83954 57.95193 33911 ft 478 kts 284°
2026-05-06 08:44 22.85747 57.88246 33935 ft 478 kts 284°
2026-05-06 08:45 22.87535 57.81305 33935 ft 478 kts 284°
2026-05-06 08:45 22.89317 57.74362 33924 ft 478 kts 284°
2026-05-06 08:46 22.91057 57.67403 33947 ft 478 kts 284°
2026-05-06 08:46 22.92783 57.60440 33950 ft 478 kts 284°
2026-05-06 08:47 22.94512 57.53475 33967 ft 477 kts 284°
2026-05-06 08:47 22.96239 57.46519 33962 ft 478 kts 284°
2026-05-06 08:48 22.97964 57.39556 33966 ft 478 kts 284°
2026-05-06 08:48 22.99730 57.32643 33947 ft 479 kts 287°
2026-05-06 08:49 23.02313 57.25986 33961 ft 480 kts 295°
2026-05-06 08:49 23.05413 57.19564 33943 ft 480 kts 296°
2026-05-06 08:50 23.08510 57.13139 33942 ft 480 kts 296°
2026-05-06 08:50 23.11586 57.06687 33935 ft 480 kts 295°
2026-05-06 08:51 23.14644 57.00239 33949 ft 480 kts 295°
2026-05-06 08:51 23.17697 56.93786 33921 ft 480 kts 295°
2026-05-06 08:52 23.20745 56.87335 33920 ft 479 kts 295°
2026-05-06 08:52 23.23788 56.80892 33909 ft 479 kts 295°
2026-05-06 08:53 23.26824 56.74455 33909 ft 478 kts 295°
2026-05-06 08:53 23.29857 56.68013 33902 ft 478 kts 295°
2026-05-06 08:54 23.32882 56.61583 33897 ft 478 kts 295°
2026-05-06 08:54 23.35885 56.55190 33898 ft 478 kts 295°
2026-05-06 08:55 23.38906 56.48748 33897 ft 478 kts 295°
2026-05-06 08:55 23.41926 56.42303 33894 ft 478 kts 295°
2026-05-06 08:56 23.44963 56.35809 33908 ft 478 kts 295°
2026-05-06 08:56 23.47958 56.29397 33883 ft 473 kts 295°
2026-05-06 08:56 23.49432 56.26244 33548 ft 461 kts 295°
2026-05-06 08:57 23.50875 56.23153 33006 ft 455 kts 295°
2026-05-06 08:57 23.52298 56.20097 32504 ft 449 kts 295°
2026-05-06 08:57 23.53701 56.17084 32010 ft 443 kts 295°
2026-05-06 08:57 23.55088 56.14105 31520 ft 438 kts 295°
2026-05-06 08:58 23.56459 56.11159 31059 ft 434 kts 295°
2026-05-06 08:58 23.57817 56.08242 30582 ft 429 kts 295°
2026-05-06 08:58 23.59161 56.05352 30126 ft 425 kts 295°
2026-05-06 08:58 23.60489 56.02494 29621 ft 422 kts 295°
2026-05-06 08:59 23.61809 55.99651 29092 ft 418 kts 295°
2026-05-06 08:59 23.63117 55.96831 28569 ft 415 kts 295°
2026-05-06 08:59 23.64173 55.94554 28146 ft 412 kts 295°
2026-05-06 08:59 23.64478 55.93898 28033 ft 412 kts 295°
2026-05-06 09:00 23.65766 55.91117 27538 ft 410 kts 295°
2026-05-06 09:00 23.67048 55.88350 27048 ft 408 kts 295°
2026-05-06 09:00 23.68323 55.85595 26563 ft 406 kts 296°
2026-05-06 09:00 23.69592 55.82854 26072 ft 404 kts 296°
2026-05-06 09:01 23.70855 55.80123 25613 ft 403 kts 296°
2026-05-06 09:01 23.72096 55.77435 25163 ft 401 kts 296°
2026-05-06 09:01 23.73347 55.74723 24713 ft 399 kts 296°
2026-05-06 09:01 23.74593 55.72021 24271 ft 398 kts 296°
2026-05-06 09:02 23.75837 55.69323 23834 ft 397 kts 296°
2026-05-06 09:02 23.77076 55.66633 23400 ft 396 kts 296°
2026-05-06 09:02 23.78312 55.63951 22860 ft 395 kts 296°
2026-05-06 09:02 23.79544 55.61274 22369 ft 395 kts 297°
2026-05-06 09:03 23.80775 55.58595 21867 ft 394 kts 297°
2026-05-06 09:03 23.82001 55.55929 21365 ft 393 kts 297°
2026-05-06 09:03 23.83226 55.53262 20894 ft 392 kts 297°
2026-05-06 09:03 23.84387 55.50567 20405 ft 392 kts 295°
2026-05-06 09:04 23.85490 55.47844 19938 ft 392 kts 294°
2026-05-06 09:04 23.86589 55.45124 19473 ft 391 kts 295°
2026-05-06 09:04 23.87701 55.42411 19020 ft 391 kts 295°
2026-05-06 09:04 23.88818 55.39702 18572 ft 391 kts 295°
2026-05-06 09:05 23.89935 55.36997 18136 ft 390 kts 295°
2026-05-06 09:05 23.90673 55.35208 17795 ft 390 kts 295°
2026-05-06 09:05 23.91789 55.32503 17290 ft 390 kts 295°
2026-05-06 09:05 23.92922 55.29816 16802 ft 389 kts 297°
2026-05-06 09:06 23.94145 55.27180 16309 ft 388 kts 298°
2026-05-06 09:06 23.95404 55.24567 15827 ft 388 kts 298°
2026-05-06 09:06 23.96661 55.21962 15339 ft 387 kts 298°
2026-05-06 09:06 23.97906 55.19358 14888 ft 386 kts 298°
2026-05-06 09:07 23.99139 55.16752 14411 ft 379 kts 298°
2026-05-06 09:07 24.00310 55.14267 13927 ft 357 kts 298°
2026-05-06 09:07 24.01417 55.11916 13424 ft 339 kts 298°
2026-05-06 09:07 24.02469 55.09678 12906 ft 324 kts 298°
2026-05-06 09:08 24.03478 55.07533 12378 ft 311 kts 298°
2026-05-06 09:08 24.04451 55.05465 11878 ft 300 kts 298°
2026-05-06 09:08 24.05397 55.03464 11378 ft 291 kts 300°
2026-05-06 09:08 24.06512 55.01657 10891 ft 282 kts 309°
2026-05-06 09:09 24.07663 55.00086 10438 ft 276 kts 310°
2026-05-06 09:09 24.09004 54.98641 9942 ft 267 kts 332°
2026-05-06 09:09 24.10709 54.98019 9455 ft 255 kts 360°
2026-05-06 09:09 24.12429 54.98216 8964 ft 245 kts 18°
2026-05-06 09:10 24.13942 54.98983 8463 ft 237 kts 36°
2026-05-06 09:10 24.15252 55.00034 8001 ft 232 kts 34°
2026-05-06 09:10 24.16767 55.00558 7468 ft 232 kts 358°
2026-05-06 09:10 24.18245 55.00024 6991 ft 228 kts 323°
2026-05-06 09:11 24.19353 54.98822 6676 ft 220 kts 310°
2026-05-06 09:11 24.20289 54.97529 6276 ft 215 kts 308°
2026-05-06 09:11 24.21210 54.96241 5754 ft 214 kts 314°
2026-05-06 09:11 24.22263 54.95112 5300 ft 211 kts 317°
2026-05-06 09:12 24.23330 54.94013 4823 ft 212 kts 317°
2026-05-06 09:12 24.24414 54.92889 4458 ft 215 kts 316°
2026-05-06 09:12 24.25481 54.91769 4204 ft 210 kts 316°
2026-05-06 09:12 24.26521 54.90669 3957 ft 206 kts 316°
2026-05-06 09:13 24.27539 54.89585 3694 ft 202 kts 315°
2026-05-06 09:13 24.28534 54.88528 3447 ft 196 kts 315°
2026-05-06 09:13 24.29503 54.87505 3197 ft 191 kts 313°
2026-05-06 09:13 24.30392 54.86462 2939 ft 183 kts 308°
2026-05-06 09:14 24.31194 54.85418 2653 ft 175 kts 306°
2026-05-06 09:14 24.31925 54.84405 2454 ft 163 kts 305°
2026-05-06 09:14 24.32641 54.83410 2247 ft 169 kts 305°
2026-05-06 09:14 24.33360 54.82396 2087 ft 166 kts 304°
2026-05-06 09:15 24.34062 54.81402 2059 ft 168 kts 305°
2026-05-06 09:15 24.34790 54.80376 2011 ft 170 kts 304°
2026-05-06 09:15 24.35518 54.79350 1956 ft 170 kts 303°
2026-05-06 09:15 24.36232 54.78341 1944 ft 168 kts 306°
2026-05-06 09:16 24.36946 54.77335 1981 ft 171 kts 304°
2026-05-06 09:16 24.37681 54.76294 1936 ft 172 kts 304°
2026-05-06 09:16 24.38405 54.75271 1866 ft 174 kts 305°
2026-05-06 09:16 24.39151 54.74229 1664 ft 172 kts 305°
2026-05-06 09:17 24.39890 54.73188 1391 ft 170 kts 303°
2026-05-06 09:17 24.40586 54.72195 1224 ft 162 kts 305°
2026-05-06 09:17 24.41288 54.71198 1000 ft 167 kts 306°
2026-05-06 09:17 24.42011 54.70186 862 ft 176 kts 306°
2026-05-06 09:18 24.42766 54.69113 617 ft 178 kts 304°
2026-05-06 09:18 24.43525 54.68050 385 ft 170 kts 306°
2026-05-06 09:18 24.44197 54.67055 149 ft 156 kts 305°
2026-05-06 09:18 24.44812 54.66198 86 ft 125 kts 308°
2026-05-06 09:19 24.45170 54.65705 86 ft 53 kts 309°
2026-05-06 09:19 24.45372 54.65427 85 ft 50 kts 308°
2026-05-06 09:19 24.45557 54.65165 69 ft 37 kts 303°
2026-05-06 09:19 24.45633 54.64975 74 ft 23 kts 285°
2026-05-06 09:20 24.45652 54.64815 71 ft 20 kts 276°
2026-05-06 09:20 24.45689 54.64672 84 ft 15 kts 299°
2026-05-06 09:20 24.45672 54.64569 81 ft 15 kts 212°
2026-05-06 09:20 24.45587 54.64509 82 ft 13 kts 216°
2026-05-06 09:21 24.45520 54.64453 82 ft 11 kts 218°
2026-05-06 09:21 24.45475 54.64391 70 ft 8 kts 264°
2026-05-06 09:21 24.45512 54.64345 71 ft 9 kts 338°
2026-05-06 09:21 24.45573 54.64327 69 ft 9 kts 345°
2026-05-06 09:22 24.45634 54.64308 70 ft 9 kts 340°
2026-05-06 09:22 24.45656 54.64266 71 ft 3 kts 253°
2026-05-06 09:22 24.45649 54.64240 68 ft 4 kts 253°
2026-05-06 09:22 24.45644 54.64222 70 ft 1 kts 253°
2026-05-06 09:23 24.45641 54.64210 75 ft 3 kts 254°
2026-05-06 09:23 24.45639 54.64203 74 ft 0 kts 254°